When you browse on this site, cookies collect data to enhance your experience and personalize the content and advertising you see.
Visit our Privacy Policy to learn more. By continuing to use the site, you agree to this use of cookies and data.

Hourly Weather Ashtarak

Today, 12 July, Sunday

Time Temperature Precipitation Wind Pressure Humidity
00:00 +19°C° 0.9 mm 2 mps 657 mmHg 80%
01:00 +19°C° 0.1 mm 2 mps 657 mmHg 80%
02:00 +19°C° 0.1 mm 2 mps 657 mmHg 80%
03:00 +19°C° 0 mm 2 mps 656 mmHg 81%
04:00 +20°C° 0.2 mm 1 mps 656 mmHg 81%
05:00 +20°C° 0.2 mm 1 mps 656 mmHg 81%
06:00 +20°C° 0.2 mm 1 mps 656 mmHg 81%
07:00 +21°C° 0.3 mm 1 mps 656 mmHg 76%
08:00 +22°C° 0.3 mm 1 mps 656 mmHg 71%
09:00 +23°C° 0 mm 1 mps 657 mmHg 66%
10:00 +24°C° 0.4 mm 1 mps 657 mmHg 61%
11:00 +26°C° 0.4 mm 2 mps 657 mmHg 56%
12:00 +27°C° 0.4 mm 2 mps 657 mmHg 51%
13:00 +28°C° 0.8 mm 2 mps 657 mmHg 50%
14:00 +28°C° 0.8 mm 2 mps 656 mmHg 49%
15:00 +28°C° 0 mm 2 mps 656 mmHg 46%
16:00 +28°C° 0.4 mm 3 mps 656 mmHg 48%
17:00 +28°C° 0.4 mm 3 mps 656 mmHg 50%
18:00 +27°C° 0.4 mm 3 mps 656 mmHg 52%
19:00 +26°C° 0.3 mm 3 mps 655 mmHg 55%
20:00 +23°C° 0.3 mm 4 mps 655 mmHg 58%
21:00 +22°C° 0.3 mm 4 mps 655 mmHg 62%
22:00 +21°C° 0.7 mm 3 mps 655 mmHg 66%
23:00 +20°C° 0.7 mm 2 mps 655 mmHg 69%

Tomorrow, 13 July, Monday

Time Temperature Precipitation Wind Pressure Humidity
00:00 +20°C° 0.7 mm 2 mps 654 mmHg 73%
01:00 +20°C° 0.5 mm 2 mps 654 mmHg 74%
02:00 +21°C° 0.5 mm 1 mps 654 mmHg 76%
03:00 +20°C° 0.5 mm 1 mps 654 mmHg 77%
04:00 +20°C° 0.3 mm 1 mps 654 mmHg 77%
05:00 +21°C° 0.3 mm 1 mps 654 mmHg 77%
06:00 +21°C° 0.3 mm 1 mps 654 mmHg 76%
07:00 +22°C° 0.2 mm 1 mps 654 mmHg 71%
08:00 +23°C° 0.2 mm 1 mps 654 mmHg 66%
09:00 +24°C° 0.2 mm 1 mps 654 mmHg 61%
10:00 +25°C° 0.5 mm 2 mps 654 mmHg 57%
11:00 +26°C° 0.5 mm 2 mps 654 mmHg 53%
12:00 +27°C° 0.5 mm 2 mps 654 mmHg 49%
13:00 +28°C° 0.4 mm 2 mps 654 mmHg 47%
14:00 +29°C° 0.4 mm 2 mps 654 mmHg 44%
15:00 +29°C° 0.4 mm 2 mps 655 mmHg 42%
16:00 +28°C° 0.9 mm 3 mps 654 mmHg 47%
17:00 +27°C° 0.9 mm 3 mps 654 mmHg 53%
18:00 +26°C° 0.9 mm 4 mps 654 mmHg 59%
19:00 +24°C° 1.1 mm 3 mps 654 mmHg 61%
20:00 +22°C° 1.1 mm 3 mps 655 mmHg 64%
21:00 +20°C° 1.1 mm 2 mps 655 mmHg 67%
22:00 +20°C° 0 mm 2 mps 655 mmHg 68%
23:00 +20°C° 0 mm 1 mps 654 mmHg 69%

Day after tomorrow, 14 July, Tuesday

Time Temperature Precipitation Wind Pressure Humidity
00:00 +20°C° 0 mm 1 mps 654 mmHg 71%
01:00 +19°C° 0 mm 1 mps 654 mmHg 72%
02:00 +19°C° 0 mm 1 mps 654 mmHg 73%
03:00 +19°C° 0 mm 1 mps 654 mmHg 74%
04:00 +19°C° 0 mm 1 mps 655 mmHg 72%
05:00 +20°C° 0 mm 1 mps 655 mmHg 71%
06:00 +20°C° 0 mm 1 mps 655 mmHg 69%
07:00 +22°C° 0 mm 1 mps 656 mmHg 64%
08:00 +23°C° 0 mm 1 mps 656 mmHg 59%
09:00 +25°C° 0 mm 1 mps 657 mmHg 54%
10:00 +26°C° 0.3 mm 1 mps 657 mmHg 51%
11:00 +27°C° 0.3 mm 1 mps 657 mmHg 48%
12:00 +28°C° 0.3 mm 2 mps 657 mmHg 45%
13:00 +28°C° 0.3 mm 2 mps 657 mmHg 43%
14:00 +29°C° 0.3 mm 1 mps 657 mmHg 41%
15:00 +30°C° 0.3 mm 1 mps 657 mmHg 38%
16:00 +29°C° 0.2 mm 2 mps 657 mmHg 40%
17:00 +29°C° 0.2 mm 2 mps 657 mmHg 42%
18:00 +29°C° 0.2 mm 2 mps 657 mmHg 44%
19:00 +27°C° 0.2 mm 2 mps 658 mmHg 49%
20:00 +25°C° 0.2 mm 2 mps 658 mmHg 54%
21:00 +21°C° 0.2 mm 3 mps 658 mmHg 60%
22:00 +21°C° 0.2 mm 2 mps 658 mmHg 61%
23:00 +21°C° 0.2 mm 2 mps 658 mmHg 61%

15 July, Wednesday

Time Temperature Precipitation Wind Pressure Humidity
00:00 +20°C° 0.2 mm 2 mps 658 mmHg 62%
01:00 +20°C° 0.2 mm 2 mps 658 mmHg 64%
02:00 +19°C° 0.2 mm 2 mps 658 mmHg 66%
03:00 +20°C° 0.2 mm 1 mps 658 mmHg 67%
04:00 +20°C° 0 mm 1 mps 658 mmHg 67%
05:00 +21°C° 0 mm 1 mps 658 mmHg 67%
06:00 +21°C° 0 mm 1 mps 658 mmHg 67%
07:00 +23°C° 0 mm 1 mps 659 mmHg 62%
08:00 +24°C° 0 mm 1 mps 659 mmHg 56%
09:00 +26°C° 0 mm 1 mps 659 mmHg 51%
10:00 +27°C° 0.2 mm 1 mps 659 mmHg 48%
11:00 +28°C° 0.2 mm 1 mps 659 mmHg 45%
12:00 +29°C° 0.2 mm 2 mps 659 mmHg 42%
13:00 +30°C° 0.2 mm 2 mps 659 mmHg 39%
14:00 +31°C° 0.2 mm 1 mps 659 mmHg 37%
15:00 +31°C° 0.2 mm 1 mps 659 mmHg 35%
16:00 +31°C° 0.1 mm 2 mps 659 mmHg 38%
17:00 +30°C° 0.1 mm 2 mps 659 mmHg 41%
18:00 +29°C° 0.1 mm 2 mps 658 mmHg 45%
19:00 +28°C° 0.1 mm 3 mps 658 mmHg 49%
20:00 +26°C° 0.1 mm 3 mps 658 mmHg 52%
21:00 +24°C° 0.1 mm 3 mps 658 mmHg 56%
22:00 +22°C° 0.4 mm 3 mps 658 mmHg 59%
23:00 +21°C° 0.4 mm 2 mps 658 mmHg 62%

16 July, Thursday

Time Temperature Precipitation Wind Pressure Humidity
00:00 +21°C° 0.4 mm 2 mps 657 mmHg 64%
01:00 +20°C° 0.6 mm 2 mps 657 mmHg 66%
02:00 +20°C° 0.6 mm 2 mps 657 mmHg 68%
03:00 +19°C° 0.6 mm 2 mps 657 mmHg 70%
04:00 +21°C° 0.3 mm 1 mps 657 mmHg 69%
05:00 +21°C° 0.3 mm 1 mps 657 mmHg 68%
06:00 +21°C° 0.3 mm 1 mps 657 mmHg 68%
07:00 +23°C° 0.2 mm 1 mps 657 mmHg 63%
08:00 +24°C° 0.2 mm 1 mps 658 mmHg 59%
09:00 +26°C° 0.2 mm 1 mps 658 mmHg 54%
10:00 +27°C° 0.4 mm 2 mps 658 mmHg 51%
11:00 +28°C° 0.4 mm 2 mps 658 mmHg 47%
12:00 +29°C° 0.4 mm 2 mps 658 mmHg 43%
13:00 +30°C° 0.2 mm 2 mps 657 mmHg 41%
14:00 +31°C° 0.2 mm 2 mps 657 mmHg 39%
15:00 +31°C° 0.2 mm 3 mps 657 mmHg 37%
16:00 +31°C° 0.3 mm 2 mps 657 mmHg 40%
17:00 +30°C° 0.3 mm 2 mps 657 mmHg 43%
18:00 +30°C° 0.3 mm 1 mps 657 mmHg 46%
19:00 +27°C° 0.5 mm 2 mps 656 mmHg 53%
20:00 +25°C° 0.5 mm 2 mps 656 mmHg 60%
21:00 +22°C° 0.5 mm 3 mps 656 mmHg 67%
22:00 +23°C° 0.7 mm 2 mps 656 mmHg 69%
23:00 +21°C° 0.7 mm 2 mps 656 mmHg 71%

17 July, Friday

Time Temperature Precipitation Wind Pressure Humidity
00:00 +22°C° 0.7 mm 1 mps 655 mmHg 73%
01:00 +21°C° 0.1 mm 1 mps 655 mmHg 73%
02:00 +21°C° 0.1 mm 1 mps 655 mmHg 73%
03:00 +20°C° 0.1 mm 1 mps 655 mmHg 73%
04:00 +21°C° 0.4 mm 1 mps 655 mmHg 73%
05:00 +21°C° 0.4 mm 1 mps 655 mmHg 73%
06:00 +21°C° 0.4 mm 1 mps 655 mmHg 73%
07:00 +23°C° 0.4 mm 1 mps 655 mmHg 67%
08:00 +24°C° 0.4 mm 1 mps 656 mmHg 61%
09:00 +26°C° 0.4 mm 1 mps 656 mmHg 55%
10:00 +27°C° 0.5 mm 2 mps 656 mmHg 51%
11:00 +29°C° 0.5 mm 2 mps 656 mmHg 47%
12:00 +30°C° 0.5 mm 2 mps 656 mmHg 44%
13:00 +30°C° 0.4 mm 2 mps 656 mmHg 43%
14:00 +31°C° 0.4 mm 3 mps 656 mmHg 42%
15:00 +31°C° 0.4 mm 3 mps 655 mmHg 41%
16:00 +30°C° 0.8 mm 3 mps 655 mmHg 46%
17:00 +28°C° 0.8 mm 4 mps 655 mmHg 51%
18:00 +27°C° 0.8 mm 5 mps 655 mmHg 56%
19:00 +25°C° 2.2 mm 4 mps 655 mmHg 64%
20:00 +22°C° 2.2 mm 3 mps 655 mmHg 71%
21:00 +20°C° 2.2 mm 3 mps 655 mmHg 79%
22:00 +20°C° 0.2 mm 2 mps 655 mmHg 77%
23:00 +20°C° 0.2 mm 2 mps 655 mmHg 76%
Show more